Wind_Speed
12 12 12 10 8 7 7 8 9 12 16 15 14 13 12 13 13 14 12 12 12 12 11 11 11 11 11 11 10 10 9 9 9 9 9 9 9 9 9 9 9 9 10 9 10 10 10 10 10
12 12 12 10 8 6 8 9 12 14 17 15 15 14 13 14 14 14 13 14 13 12 12 12 12 12 11 11 11 10 10 10 10 10 10 11 11 11 11 11 11 11 11 11 11 11 11 11 11
14 13 12 10 8 9 8 8 13 16 18 17 16 15 15 15 14 14 14 13 13 13 13 13 13 12 12 11 11 11 11 11 12 12 12 12 12 12 12 12 12 12 12 12 13 13 13 13 13
15 14 12 10 9 11 10 11 14 17 19 19 19 18 17 16 15 15 14 14 14 15 14 14 14 14 13 12 12 12 12 12 12 12 13 13 13 13 13 13 13 13 14 14 14 13 14 14 15
16 14 11 10 12 12 11 13 15 19 20 20 19 18 18 17 16 16 16 16 16 16 16 15 15 15 14 13 13 13 12 12 13 14 14 14 14 14 14 15 15 15 15 15 15 15 15 15 16
15 13 12 12 12 11 11 15 19 20 20 19 19 19 18 17 17 17 17 17 17 16 16 16 16 15 14 14 13 12 13 13 14 15 15 15 16 16 16 16 16 16 16 15 15 15 15 16 16
15 13 12 13 12 10 13 17 19 19 18 18 19 19 18 18 17 17 17 18 18 18 17 17 16 14 14 13 13 13 14 15 15 15 16 17 17 17 17 17 17 17 16 16 16 16 16 16 17
14 14 13 14 12 12 16 17 19 19 16 18 19 19 19 18 17 16 17 17 17 17 17 17 15 14 14 15 14 15 16 16 16 16 16 17 17 17 17 17 18 17 18 17 17 17 17 17 18
13 13 13 14 14 14 16 18 19 19 18 19 19 19 19 18 18 17 17 17 17 17 16 17 17 16 16 16 16 16 16 17 17 18 17 17 17 17 17 18 18 18 18 18 18 18 18 18 18
13 12 13 14 14 15 17 18 18 18 19 19 18 18 19 19 18 18 17 17 17 18 18 17 18 17 17 17 17 17 17 18 19 19 19 18 18 18 19 19 19 19 19 19 20 20 20 20 20
13 13 14 14 14 17 17 17 19 18 19 19 18 18 19 19 18 19 17 18 18 18 18 18 18 18 18 18 18 19 19 20 20 20 20 20 20 19 20 20 20 20 21 21 21 21 21 21 21
13 12 14 16 16 17 18 17 18 18 19 20 19 18 18 18 19 19 18 18 19 19 19 19 19 19 20 21 21 20 20 20 21 21 21 22 22 21 22 22 21 22 22 22 22 22 22 22 22
12 12 13 14 16 17 17 16 18 18 18 19 18 17 17 17 19 19 19 20 21 20 20 20 21 21 21 22 22 21 21 22 23 23 23 24 24 23 24 24 23 23 23 23 23 23 23 23 22
9 11 11 12 14 15 16 15 17 18 18 17 17 17 17 17 18 19 20 20 21 21 21 21 21 21 21 22 23 21 22 23 24 24 24 24 25 25 25 25 24 25 25 24 24 24 24 24 23
8 10 10 11 12 14 15 14 14 15 16 16 16 18 18 19 19 20 21 20 21 21 22 22 22 22 21 22 23 23 23 24 25 25 25 25 25 25 25 26 26 25 25 25 25 25 25 25 25
6 8 10 10 11 12 13 14 15 16 16 17 17 18 17 18 19 20 20 21 22 22 23 23 23 23 23 24 24 24 25 25 25 25 25 25 25 25 26 25 26 26 26 26 26 26 25 26 25
7 10 11 11 11 12 14 14 16 17 17 17 18 17 18 18 19 20 21 21 22 23 23 23 23 23 24 24 24 24 26 26 26 26 26 26 25 25 25 25 25 26 26 26 27 27 27 26 26
9 11 12 12 12 13 15 16 17 17 16 18 18 17 18 18 19 20 21 22 22 21 22 22 23 23 23 24 25 25 25 25 26 26 25 26 26 25 25 25 25 25 26 26 26 26 27 26 26
10 11 12 12 11 13 15 16 17 18 18 18 18 17 18 18 20 20 21 21 21 20 20 20 21 21 22 23 24 23 23 24 25 25 25 25 25 25 25 25 25 25 26 26 26 26 26 26 26
9 10 11 11 12 12 14 14 14 16 16 16 17 19 18 18 19 20 21 21 19 20 20 20 20 21 22 22 23 23 23 23 23 24 23 23 24 23 24 25 25 25 25 25 26 26 26 26 26
7 9 9 10 12 12 13 12 13 15 15 16 17 18 19 19 19 20 19 19 19 19 20 19 20 21 22 22 22 23 24 23 22 23 24 23 24 23 24 24 24 24 25 25 26 25 25 26 26
6 7 8 9 10 10 10 11 12 14 16 16 17 17 17 17 17 18 19 18 18 19 19 19 19 19 20 21 21 21 22 22 22 23 23 23 24 24 24 24 25 25 25 25 24 25 26 27 27
5 5 8 8 8 8 9 9 12 14 15 15 16 16 16 16 16 17 18 18 17 18 18 18 17 18 19 19 19 19 20 21 22 22 22 22 23 24 24 25 25 25 24 24 25 26 27 28 28
3 5 6 6 6 7 8 10 14 15 15 15 16 15 15 15 16 16 17 16 16 16 16 16 16 17 17 17 18 19 19 20 21 21 22 23 23 24 25 25 25 24 24 25 25 26 28 28 28
3 5 5 4 5 7 8 10 14 15 15 15 15 14 15 15 15 15 15 15 14 14 14 15 15 16 16 17 18 19 19 19 20 21 22 22 23 24 25 24 24 24 25 26 26 27 28 28 28
5 6 6 6 5 6 8 10 11 11 13 15 15 13 14 14 14 13 13 14 14 14 15 15 15 16 16 18 18 18 19 19 19 21 21 22 23 24 23 23 24 24 25 26 27 28 28 28 28
4 4 6 7 6 6 8 9 10 10 12 12 13 14 13 13 13 13 14 15 15 15 15 16 16 16 17 18 17 18 18 19 19 20 21 22 22 23 23 23 24 24 25 26 27 28 28 28 29
5 4 6 7 7 7 7 9 9 10 10 13 13 13 13 13 13 13 14 15 15 15 15 15 15 16 16 17 17 17 18 18 19 20 21 21 21 22 23 23 24 24 25 26 27 28 28 29 30
6 5 7 8 8 8 8 10 9 10 12 13 13 12 12 13 13 14 15 15 15 14 15 15 15 15 16 16 17 17 17 18 19 20 20 20 20 21 22 23 24 24 24 26 27 28 28 29 30
7 7 8 10 8 8 10 11 10 12 12 13 13 13 13 14 14 14 15 15 15 15 15 14 15 15 16 17 17 18 17 18 18 19 20 21 21 21 21 22 23 24 25 27 27 28 28 29 28
Wind_Direction
228 228 226 228 225 227 234 234 231 233 246 242 239 240 242 246 250 251 253 256 255 258 262 267 271 274 271 271 270 270 273 276 278 277 275 276 278 281 284 287 289 290 289 287 288 288 290 289 289
225 229 228 228 226 234 240 241 246 243 249 251 249 247 248 252 252 257 260 258 259 260 263 266 271 273 268 269 270 270 272 275 278 278 278 277 278 281 285 288 290 291 290 289 289 289 289 290 290
226 226 227 227 234 235 224 236 248 251 252 253 254 254 254 256 256 260 262 260 260 260 263 266 269 271 268 268 267 269 271 274 276 278 279 280 280 283 286 287 288 290 290 290 291 290 290 290 288
225 223 224 230 239 238 224 232 246 253 256 256 257 259 258 259 259 261 262 263 264 264 265 267 268 269 267 264 266 267 271 273 276 279 279 281 281 283 285 287 288 290 291 290 291 291 292 291 288
222 224 225 234 241 241 237 240 247 253 254 258 260 259 259 261 262 261 263 265 265 266 266 266 266 268 268 266 267 267 269 272 276 280 281 282 282 283 284 287 290 292 293 291 290 290 291 291 290
220 221 227 238 241 245 247 250 252 253 255 258 260 258 260 262 262 261 261 264 265 264 263 263 263 264 266 267 268 269 272 276 279 281 284 285 285 286 286 287 289 292 294 294 293 292 291 290 291
213 209 221 234 238 245 251 252 253 257 256 257 258 259 263 264 266 265 261 262 265 265 262 263 265 263 265 269 270 270 275 279 281 283 285 286 286 286 287 287 288 289 291 292 293 293 292 292 292
212 207 214 226 234 237 246 251 254 257 259 257 260 264 267 270 269 266 264 263 265 265 264 263 265 267 269 272 275 279 282 282 285 287 288 290 289 288 289 288 288 289 290 291 292 292 293 292 291
211 213 216 225 229 237 247 252 256 261 261 261 259 263 267 269 268 267 266 266 266 269 269 267 270 275 276 275 280 282 281 283 287 288 289 293 293 292 292 291 290 290 292 291 291 292 292 292 292
217 221 226 229 230 237 244 250 255 261 261 261 259 261 266 269 267 268 270 269 269 270 274 272 270 273 274 276 280 281 280 284 286 287 290 294 293 293 293 292 294 293 294 293 292 292 292 291 291
221 229 237 236 236 242 246 251 255 258 262 262 262 265 266 268 268 266 266 267 270 270 270 273 272 274 275 277 279 280 282 284 285 288 289 291 292 293 295 292 296 294 293 293 293 291 290 291 290
232 233 237 236 237 241 245 249 256 260 263 262 261 266 270 272 267 264 270 268 268 270 268 268 274 275 279 280 277 279 282 285 287 288 289 291 292 293 293 292 293 293 293 293 292 290 290 290 289
233 240 245 242 241 245 247 255 259 264 266 266 265 270 272 271 268 265 267 267 267 270 271 272 274 276 280 282 279 278 283 286 287 288 290 292 291 292 293 294 293 292 291 291 291 290 289 289 288
244 245 244 242 250 254 260 261 267 265 267 268 269 269 269 268 268 265 265 266 267 268 272 272 275 278 280 282 283 283 286 288 288 288 289 291 291 291 292 293 293 291 291 290 291 291 290 290 289
248 252 251 250 261 268 269 266 270 273 270 272 271 271 273 270 266 265 265 266 267 268 272 272 273 277 278 281 282 283 287 288 289 290 290 291 292 290 290 290 290 291 290 290 291 292 290 290 289
249 255 266 264 269 273 277 276 276 273 273 277 276 276 276 273 266 266 267 267 268 268 269 271 273 276 277 280 282 282 284 285 287 288 290 291 292 291 290 290 290 290 290 291 292 292 292 292 290
257 254 259 265 264 268 270 268 273 274 275 274 274 278 278 276 272 269 270 270 269 268 268 271 272 274 276 280 282 283 285 286 287 289 290 291 291 291 291 290 291 291 291 293 291 290 292 293 291
259 257 261 267 265 265 268 270 274 275 273 274 278 279 278 277 276 273 274 273 275 273 272 273 272 274 276 280 282 284 287 287 290 291 290 290 290 291 291 290 290 290 290 291 291 290 292 292 291
261 261 259 264 266 268 272 273 273 276 275 277 281 284 279 277 278 277 275 275 276 275 274 274 274 275 276 280 282 283 285 287 290 290 292 293 292 292 292 292 293 292 292 292 292 291 292 293 292
262 266 268 272 276 273 275 276 278 275 276 281 282 282 279 279 277 278 280 272 276 274 275 275 275 277 278 278 279 282 282 285 290 291 293 294 294 294 293 294 296 295 293 292 292 291 291 292 292
277 273 276 276 274 276 279 281 285 271 273 284 285 284 285 283 278 279 282 281 278 276 275 276 277 279 281 281 282 283 283 285 290 292 293 294 295 296 295 295 296 296 295 292 292 293 292 291 291
295 295 289 281 278 283 280 282 285 280 276 282 287 288 286 284 281 280 283 284 284 282 278 276 279 281 281 284 286 286 286 289 291 293 294 294 296 297 297 298 297 297 296 294 295 294 293 293 293
288 290 297 299 286 286 285 282 276 281 281 281 285 284 285 288 285 283 286 288 286 286 284 284 282 283 281 284 286 288 290 291 292 294 297 298 298 298 298 299 297 296 296 298 297 296 296 295 294
308 305 310 304 297 282 280 277 278 282 290 289 287 288 285 286 287 286 287 288 286 288 286 287 290 288 288 289 289 292 293 293 294 297 299 299 299 299 299 301 300 299 299 300 301 299 298 297 296
323 319 327 329 301 289 275 278 283 286 293 291 288 289 286 289 291 290 290 290 292 291 287 288 289 291 292 294 294 294 294 295 297 299 300 299 300 300 300 303 302 302 303 303 302 302 302 300 298
333 331 330 318 312 293 278 284 287 291 297 293 289 291 290 294 295 294 294 297 297 295 290 288 290 293 295 297 299 298 297 298 299 301 302 302 301 302 303 305 304 304 305 304 303 304 304 302 300
346 345 331 315 312 299 285 288 299 302 302 302 297 294 293 294 296 299 301 303 297 296 297 294 295 297 300 302 301 301 301 300 301 303 304 304 304 304 306 307 306 305 306 308 308 307 307 304 302
348 343 320 312 311 304 306 302 300 295 298 300 300 300 297 297 300 298 300 305 308 308 309 307 302 302 304 306 304 305 306 307 307 306 308 307 308 309 311 311 310 309 310 311 310 309 307 305 303
329 314 313 315 304 317 317 306 308 299 296 300 306 303 299 302 305 302 301 303 306 306 305 307 307 305 307 309 308 309 310 309 308 308 309 310 310 311 315 313 311 311 312 313 313 311 310 308 306
329 322 319 326 327 314 311 312 312 314 308 305 306 304 300 301 304 302 302 303 307 307 307 308 307 306 308 312 314 315 312 311 310 310 311 312 312 314 314 314 314 313 314 315 314 313 312 311 310
Height
5867 5868 5869 5871 5873 5875 5877 5879 5879 5879 5877 5877 5877 5878 5878 5879 5880 5881 5878 5878 5879 5880 5879 5879 5879 5879 5879 5879 5879 5879 5879 5879 5879 5879 5879 5878 5878 5878 5877 5877 5876 5875 5875 5874 5873 5873 5872 5871 5871
5865 5866 5868 5869 5871 5873 5876 5876 5877 5876 5874 5874 5875 5875 5876 5877 5877 5877 5876 5876 5878 5878 5878 5878 5878 5877 5877 5877 5877 5877 5877 5877 5877 5877 5877 5877 5876 5876 5875 5875 5874 5873 5873 5872 5871 5870 5870 5869 5868
5862 5863 5866 5867 5869 5872 5874 5876 5874 5873 5872 5872 5872 5874 5875 5874 5875 5875 5875 5875 5875 5876 5876 5876 5876 5876 5875 5875 5876 5876 5876 5876 5876 5875 5875 5875 5874 5874 5873 5872 5872 5871 5870 5869 5869 5868 5867 5867 5866
5859 5861 5864 5867 5869 5870 5871 5873 5871 5872 5870 5870 5870 5871 5871 5872 5872 5872 5872 5872 5873 5874 5874 5874 5874 5874 5874 5873 5873 5873 5873 5874 5874 5873 5873 5872 5872 5871 5871 5870 5869 5868 5868 5867 5866 5866 5865 5864 5863
5856 5858 5861 5864 5867 5868 5869 5869 5868 5868 5868 5868 5868 5868 5868 5869 5869 5870 5870 5870 5871 5871 5871 5871 5871 5872 5871 5871 5871 5871 5871 5871 5871 5871 5871 5870 5870 5869 5868 5867 5866 5865 5865 5864 5863 5863 5862 5861 5860
5853 5856 5860 5862 5865 5866 5866 5866 5865 5865 5865 5865 5865 5865 5865 5866 5867 5867 5868 5868 5868 5869 5869 5869 5869 5869 5869 5869 5869 5869 5869 5869 5869 5868 5868 5868 5867 5866 5865 5864 5863 5863 5862 5861 5860 5859 5858 5858 5857
5851 5854 5857 5861 5863 5864 5864 5862 5861 5862 5862 5863 5862 5862 5862 5863 5864 5864 5864 5865 5865 5865 5866 5866 5866 5866 5866 5866 5866 5866 5866 5866 5866 5865 5865 5865 5864 5863 5862 5861 5860 5859 5859 5858 5857 5856 5855 5854 5853
5848 5851 5854 5858 5860 5861 5861 5859 5858 5858 5859 5859 5859 5859 5860 5861 5861 5861 5861 5861 5861 5861 5863 5863 5863 5863 5863 5864 5864 5864 5863 5863 5863 5862 5862 5862 5861 5860 5859 5858 5857 5856 5855 5854 5854 5853 5852 5851 5850
5844 5848 5850 5854 5856 5857 5857 5856 5856 5856 5856 5855 5855 5856 5857 5857 5857 5858 5858 5858 5859 5858 5860 5860 5860 5861 5861 5860 5860 5860 5860 5860 5860 5859 5859 5858 5858 5857 5856 5854 5853 5852 5851 5851 5850 5849 5848 5847 5846
5843 5846 5848 5850 5851 5852 5853 5853 5853 5853 5852 5851 5851 5852 5852 5853 5855 5855 5855 5855 5855 5856 5856 5857 5857 5858 5857 5857 5857 5857 5857 5857 5856 5856 5855 5854 5854 5853 5852 5851 5850 5849 5848 5847 5846 5845 5844 5843 5842
5840 5843 5845 5846 5847 5849 5849 5849 5849 5849 5849 5848 5849 5849 5848 5849 5851 5851 5852 5852 5852 5853 5853 5853 5854 5854 5853 5853 5853 5853 5853 5853 5853 5852 5851 5851 5850 5849 5848 5847 5846 5845 5844 5843 5842 5841 5840 5839 5838
5838 5840 5841 5842 5844 5844 5844 5844 5845 5846 5846 5845 5845 5845 5845 5846 5847 5848 5849 5849 5849 5849 5849 5849 5850 5850 5850 5849 5849 5849 5849 5849 5848 5848 5847 5847 5846 5845 5844 5843 5841 5840 5839 5838 5837 5836 5835 5834 5833
5836 5838 5838 5839 5840 5840 5841 5841 5841 5842 5842 5841 5841 5841 5843 5843 5844 5845 5845 5845 5846 5846 5846 5846 5846 5846 5846 5845 5843 5844 5844 5844 5844 5843 5843 5842 5841 5840 5839 5838 5837 5836 5834 5833 5832 5831 5830 5829 5827
5833 5835 5836 5836 5837 5837 5837 5837 5839 5839 5838 5838 5838 5838 5839 5839 5840 5841 5841 5841 5842 5841 5841 5842 5842 5842 5842 5841 5840 5839 5839 5840 5839 5839 5838 5837 5836 5835 5834 5833 5832 5830 5829 5828 5827 5825 5824 5823 5822
5831 5832 5833 5834 5834 5835 5835 5835 5836 5836 5835 5834 5834 5835 5835 5836 5836 5836 5837 5837 5837 5837 5837 5838 5838 5838 5838 5837 5837 5836 5835 5835 5834 5834 5833 5832 5831 5829 5829 5828 5826 5825 5824 5822 5821 5819 5819 5817 5816
5829 5830 5831 5831 5831 5832 5834 5833 5833 5832 5832 5832 5831 5831 5831 5831 5831 5832 5833 5833 5834 5834 5834 5834 5834 5834 5833 5833 5833 5832 5831 5830 5829 5829 5828 5826 5825 5824 5823 5822 5820 5819 5818 5816 5815 5814 5813 5812 5810
5828 5829 5830 5830 5830 5831 5831 5830 5830 5830 5830 5829 5828 5828 5828 5828 5828 5828 5829 5829 5829 5829 5829 5829 5829 5829 5829 5828 5828 5827 5826 5825 5824 5823 5822 5821 5819 5818 5817 5815 5814 5813 5812 5810 5809 5808 5807 5805 5804
5826 5827 5828 5829 5829 5829 5828 5828 5827 5826 5826 5826 5825 5825 5825 5825 5825 5825 5825 5824 5824 5824 5824 5824 5824 5824 5824 5823 5822 5822 5821 5820 5819 5818 5817 5815 5813 5812 5810 5809 5808 5807 5805 5804 5803 5802 5800 5799 5798
5825 5825 5826 5827 5826 5825 5825 5825 5823 5823 5823 5823 5822 5821 5820 5822 5821 5821 5821 5819 5819 5819 5819 5819 5819 5819 5819 5818 5818 5817 5816 5815 5814 5813 5811 5809 5807 5806 5804 5803 5802 5801 5799 5798 5797 5796 5794 5793 5791
5822 5823 5823 5823 5822 5822 5822 5821 5820 5820 5819 5819 5819 5817 5817 5818 5818 5817 5815 5814 5814 5815 5815 5815 5815 5815 5814 5813 5812 5812 5811 5810 5809 5807 5805 5803 5802 5800 5799 5798 5796 5794 5793 5792 5791 5789 5788 5786 5785
5820 5820 5820 5821 5820 5819 5819 5819 5818 5817 5816 5816 5816 5815 5814 5814 5814 5813 5812 5810 5810 5810 5811 5810 5810 5810 5809 5808 5808 5807 5806 5805 5804 5802 5800 5798 5797 5795 5794 5792 5790 5789 5788 5786 5785 5783 5781 5780 5778
5819 5819 5818 5818 5817 5817 5817 5816 5815 5813 5813 5813 5813 5812 5811 5811 5810 5810 5809 5808 5807 5807 5806 5806 5806 5806 5805 5804 5803 5802 5801 5800 5799 5797 5795 5794 5792 5790 5788 5787 5785 5784 5782 5780 5779 5777 5775 5773 5771
5818 5818 5817 5816 5815 5815 5815 5815 5813 5811 5810 5810 5810 5808 5808 5807 5807 5807 5806 5805 5804 5803 5803 5802 5802 5802 5801 5800 5799 5798 5796 5795 5794 5792 5790 5789 5787 5785 5783 5781 5780 5778 5776 5774 5773 5771 5768 5766 5764
5817 5816 5815 5814 5814 5814 5815 5815 5812 5810 5809 5807 5806 5806 5805 5805 5804 5803 5803 5802 5802 5800 5800 5799 5799 5798 5797 5796 5794 5793 5792 5790 5789 5787 5785 5784 5782 5780 5778 5776 5774 5772 5771 5768 5766 5764 5762 5759 5757
5816 5816 5814 5814 5813 5813 5813 5813 5811 5808 5807 5806 5804 5803 5803 5802 5801 5801 5799 5799 5799 5797 5797 5796 5796 5795 5793 5792 5790 5789 5788 5786 5784 5783 5780 5778 5776 5774 5772 5770 5769 5767 5765 5763 5760 5758 5755 5752 5750
5816 5815 5814 5814 5813 5812 5811 5810 5808 5806 5805 5803 5802 5800 5800 5800 5799 5798 5797 5796 5795 5794 5793 5793 5792 5791 5790 5788 5787 5785 5783 5781 5780 5778 5776 5774 5771 5769 5766 5765 5763 5761 5759 5757 5754 5751 5748 5746 5743
5815 5814 5814 5812 5811 5811 5809 5807 5807 5805 5803 5801 5801 5799 5798 5798 5797 5796 5795 5794 5792 5791 5790 5789 5788 5787 5786 5784 5783 5781 5779 5777 5775 5773 5771 5769 5767 5764 5762 5760 5758 5756 5753 5751 5748 5745 5742 5739 5736
5816 5815 5813 5811 5810 5809 5808 5806 5806 5804 5802 5800 5798 5798 5797 5796 5795 5794 5792 5791 5789 5787 5786 5784 5784 5783 5782 5780 5779 5777 5775 5773 5771 5769 5767 5764 5762 5760 5757 5755 5752 5750 5747 5744 5741 5738 5735 5732 5729
5816 5815 5812 5810 5809 5808 5806 5807 5804 5802 5800 5799 5797 5795 5795 5794 5792 5791 5790 5789 5787 5786 5784 5782 5781 5780 5779 5777 5775 5773 5771 5769 5767 5765 5762 5760 5757 5754 5752 5749 5747 5744 5741 5739 5735 5732 5728 5725 5721
5815 5814 5812 5810 5808 5807 5805 5806 5802 5800 5799 5797 5795 5794 5792 5791 5790 5788 5787 5786 5785 5783 5782 5780 5779 5778 5776 5774 5772 5770 5768 5765 5763 5761 5758 5756 5752 5749 5747 5744 5742 5739 5736 5733 5729 5726 5722 5718 5714